Temp
13 11 9 9 7 7 6 5 4 3 2 2 4 3 3 2 2 4 2 2 2 2 3 3 3 4 4 4 5 5 6 7 7 2 -0 -0 0 1 -0 -1 -1 -1 -3
9 9 8 7 6 5 4 3 3 2 2 3 1 2 2 2 2 3 2 2 1 2 2 3 2 3 3 3 4 4 5 5 6 3 1 0 0 -1 -2 -2 -1 -1 -2
7 7 6 5 4 3 3 3 2 2 2 3 3 3 1 1 1 1 1 1 0 1 2 2 1 2 2 2 2 3 3 3 4 3 2 2 0 -0 -2 -3 -2 -1 -1
6 5 4 3 3 3 2 2 2 3 2 2 2 1 0 0 1 1 1 -0 -0 0 0 0 0 1 1 1 1 1 1 2 3 3 2 1 1 -1 0 1 0 -1 -1
5 4 4 3 3 2 2 2 2 2 1 1 0 0 0 0 -0 0 -0 0 -0 -1 -1 -1 -1 -0 -1 -0 1 0 0 2 2 3 2 1 0 -0 1 -1 1 -0 -2
4 3 3 3 3 3 2 2 1 1 0 0 0 -0 -0 -0 -0 -0 -0 -0 -1 -1 -1 -1 -2 -1 -0 -0 -1 -1 0 1 3 3 3 2 -3 -3 -3 -1 0 1 2
3 3 3 2 1 1 1 0 0 0 -0 -0 -0 -1 -1 -1 -1 -0 0 -1 -1 -1 -1 -1 -2 -2 -3 -2 -1 -1 -1 -1 1 2 2 0 -3 -3 -1 -1 -1 0 0
2 2 2 1 1 0 0 -0 -0 -0 -0 -1 -1 -1 -1 -1 -1 1 -1 -1 -1 -1 -2 -2 -3 -3 -2 -3 -2 -3 -4 -3 -2 -2 -3 -4 -4 -4 -2 -0 -0 -1 -2
2 1 1 1 1 0 -0 -0 -0 -1 -1 -1 -1 -1 -2 -1 -1 -1 -1 -2 -3 -3 -3 -3 -4 -4 -4 -3 -4 -5 -6 -6 -5 -5 -4 -4 -3 -3 -4 -2 -2 -0 -1
3 2 1 1 0 -0 -0 0 -0 -1 -1 -1 -2 -2 -1 -2 -2 -1 -2 -2 -3 -4 -5 -4 -4 -4 -5 -5 -5 -5 -5 -6 -7 -7 -6 -6 -5 -4 -4 -4 -3 -1 -2
3 2 1 1 0 -0 -1 -1 -1 -1 -2 -2 -2 -2 -2 -3 -3 -1 -2 -2 -3 -3 -4 -5 -5 -6 -6 -6 -6 -5 -5 -6 -7 -7 -7 -7 -7 -7 -6 -5 -6 -4 -4
2 1 0 0 -0 -1 -1 -1 -1 -2 -1 -2 -2 -2 -2 -3 -3 -4 -4 -2 -3 -3 -4 -4 -5 -6 -6 -6 -5 -6 -6 -7 -7 -6 -6 -6 -6 -6 -7 -7 -7 -7 -7
1 0 -0 -1 -1 -1 -1 -2 -2 -2 -1 -1 -1 -2 -3 -3 -4 -3 -4 -4 -3 -3 -4 -5 -6 -6 -6 -7 -7 -6 -6 -6 -6 -5 -5 -5 -5 -6 -8 -8 -8 -8 -9
-0 -0 -1 -1 -1 -2 -2 -2 -2 -2 -1 -1 -1 -2 -2 -3 -4 -4 -5 -5 -5 -5 -6 -6 -6 -6 -6 -6 -7 -8 -7 -6 -5 -5 -4 -5 -6 -6 -6 -6 -6 -6 -5
-1 -1 -1 -1 -1 -2 -1 -1 -1 -1 -1 -1 -1 -2 -2 -3 -3 -4 -5 -5 -6 -6 -6 -6 -6 -5 -5 -6 -6 -6 -6 -6 -6 -5 -5 -5 -5 -5 -5 -5 -5 -5 -5
-1 -1 -1 -1 -1 -2 -2 -2 -2 -1 -1 -1 -2 -2 -2 -3 -4 -4 -5 -6 -7 -7 -6 -6 -5 -5 -5 -5 -5 -5 -5 -6 -5 -5 -5 -5 -5 -5 -5 -5 -5 -5 -4
-1 -1 -1 -1 -1 -1 -1 -1 -2 -3 -2 -2 -2 -3 -3 -3 -4 -5 -6 -6 -7 -8 -6 -6 -5 -5 -5 -5 -5 -5 -5 -5 -5 -6 -6 -6 -5 -5 -6 -5 -6 -5 -5
-1 -1 -1 -2 -2 -2 -1 -1 -1 -2 -2 -3 -4 -4 -4 -4 -5 -5 -6 -7 -8 -7 -6 -6 -6 -6 -5 -5 -5 -5 -5 -6 -7 -6 -6 -6 -6 -6 -6 -6 -6 -6 -5
-2 -2 -2 -2 -2 -2 -2 -1 -1 -2 -2 -3 -4 -5 -4 -5 -5 -5 -6 -6 -7 -6 -6 -6 -6 -6 -6 -6 -6 -6 -6 -7 -7 -7 -7 -7 -7 -7 -6 -6 -6 -7 -7
-2 -2 -2 -2 -2 -2 -1 -1 -2 -2 -2 -3 -3 -4 -5 -5 -5 -5 -5 -5 -6 -6 -7 -6 -6 -6 -6 -6 -6 -7 -7 -7 -7 -7 -7 -8 -8 -8 -7 -7 -7 -7 -8
-1 -2 -2 -2 -1 -2 -1 -1 -1 -2 -2 -3 -3 -4 -5 -4 -5 -5 -5 -5 -6 -6 -6 -6 -6 -6 -6 -6 -6 -6 -6 -7 -7 -7 -7 -8 -8 -8 -8 -8 -8 -8 -7
-1 -2 -2 -2 -2 -2 -2 -2 -2 -3 -3 -3 -4 -5 -5 -5 -5 -5 -5 -5 -5 -6 -6 -6 -6 -6 -6 -7 -7 -7 -7 -7 -7 -7 -8 -8 -9 -9 -9 -9 -9 -9 -9
-2 -2 -2 -2 -3 -3 -3 -3 -3 -3 -3 -4 -4 -5 -5 -4 -5 -5 -5 -5 -6 -6 -6 -6 -6 -6 -7 -7 -7 -7 -7 -7 -7 -8 -8 -9 -9 -9 -10 -9 -10 -10 -9
-2 -2 -2 -3 -3 -3 -3 -3 -3 -3 -3 -4 -4 -4 -4 -4 -4 -5 -5 -5 -6 -6 -7 -7 -7 -7 -8 -8 -8 -8 -8 -8 -8 -9 -9 -9 -10 -10 -10 -10 -10 -11 -11
-3 -3 -3 -3 -3 -3 -3 -3 -3 -4 -4 -4 -4 -4 -4 -4 -5 -5 -5 -6 -6 -7 -7 -8 -8 -8 -9 -8 -8 -9 -9 -9 -10 -10 -11 -10 -10 -11 -11 -11 -11 -11 -12
-3 -3 -3 -3 -3 -3 -3 -3 -3 -4 -4 -4 -4 -4 -5 -5 -5 -6 -6 -7 -7 -7 -8 -8 -9 -9 -8 -9 -9 -9 -9 -10 -10 -11 -11 -11 -11 -12 -12 -13 -13 -13 -13
Height
650 648 652 657 663 670 674 681 680 689 700 709 714 733 740 754 765 760 771 773 781 784 791 787 793 799 803 802 810 814 815 817 821 834 839 842 845 846 846 846 845 845 843
653 643 646 651 658 665 670 676 679 686 696 706 713 726 737 747 758 762 777 775 784 785 784 789 790 798 800 804 810 814 816 818 822 829 837 841 844 846 846 846 845 845 846
655 650 649 651 656 661 667 673 679 687 695 704 711 721 731 743 749 769 775 778 782 782 785 784 793 789 797 803 810 815 816 817 822 828 831 838 841 845 845 843 844 844 846
655 651 651 654 657 661 666 672 679 687 692 701 709 719 730 738 750 759 771 777 782 785 784 786 788 788 794 800 808 814 816 818 820 825 828 835 836 840 842 841 840 843 845
653 654 654 655 659 663 667 673 678 686 692 700 707 719 729 738 750 753 760 771 774 782 783 782 783 786 792 797 804 809 813 816 818 822 826 830 832 836 838 841 841 844 846
646 650 654 657 660 662 666 671 676 684 692 701 711 719 729 738 744 753 759 765 770 771 773 780 780 786 788 792 797 804 811 815 816 820 824 825 828 832 833 837 839 841 841
650 649 654 653 658 666 669 673 677 686 694 704 714 721 727 737 744 748 758 766 768 769 776 781 786 788 790 791 797 801 806 812 814 820 821 825 825 829 830 836 837 838 839
652 651 653 657 664 667 672 677 683 689 697 706 712 721 726 740 745 750 757 762 766 769 772 777 786 791 792 794 800 805 808 811 817 816 819 821 823 825 830 833 835 837 839
653 653 655 658 659 662 670 676 683 693 699 708 713 723 730 739 745 750 756 762 768 770 775 777 783 788 791 795 799 806 810 814 816 818 819 821 820 824 826 831 834 833 835
653 653 653 659 662 669 674 678 688 696 703 711 717 728 733 738 743 750 755 760 768 770 773 777 785 787 790 795 800 807 813 819 820 822 821 822 826 827 827 827 829 830 832
652 654 653 659 663 669 676 681 688 696 704 713 720 728 734 740 744 748 756 760 764 767 771 777 783 786 789 793 799 805 812 816 820 821 822 825 829 828 828 828 826 830 831
650 653 654 659 665 669 676 686 690 697 705 715 722 728 734 738 741 750 757 761 763 764 768 775 781 785 790 791 797 800 805 816 818 820 825 830 831 829 827 829 828 828 828
651 651 654 661 664 671 676 684 693 700 707 713 719 725 730 737 743 749 755 760 763 768 771 774 780 786 792 791 794 798 801 809 819 818 822 829 828 827 827 829 829 828 829
650 651 655 660 666 674 679 685 691 699 705 711 718 722 729 735 739 746 753 759 765 767 772 779 781 787 793 792 798 801 803 808 812 816 820 826 824 824 826 828 829 828 829
657 655 659 665 667 673 679 685 692 698 701 704 711 715 720 729 734 740 747 754 760 766 772 778 781 787 792 795 796 801 806 808 810 813 818 820 821 823 823 825 825 825 826
658 659 661 665 668 674 681 687 693 699 703 707 712 714 721 727 733 739 746 754 757 762 771 778 780 786 789 794 796 799 802 805 808 812 814 816 819 820 821 822 822 822 823
659 661 665 668 673 678 684 687 693 700 703 708 712 716 720 724 732 741 745 752 758 763 767 777 782 784 788 790 794 797 799 802 806 808 810 813 816 817 818 819 820 819 821
660 664 669 674 678 683 685 688 691 697 703 710 715 718 721 726 734 738 747 754 762 765 769 776 780 783 786 790 792 794 797 799 803 804 807 811 814 814 815 816 816 818 818
668 671 675 678 683 685 687 689 692 699 704 711 717 721 723 729 735 742 747 752 756 761 770 774 776 779 784 787 790 792 794 796 799 801 806 809 810 811 811 812 813 815 818
676 678 681 683 685 687 689 692 696 701 706 711 715 720 725 732 738 743 748 751 756 762 768 771 773 776 780 784 787 789 791 793 796 800 803 806 808 809 809 811 811 813 813
681 683 684 686 688 690 692 696 698 702 706 712 717 721 726 732 738 742 747 752 756 760 764 768 770 773 776 780 783 785 788 790 794 797 800 802 804 805 806 808 810 812 812
684 684 685 688 690 693 695 698 701 705 709 713 719 725 728 733 738 743 747 751 755 758 762 765 767 770 773 776 779 781 784 788 791 794 796 799 802 803 805 806 808 810 810
687 688 689 691 694 697 700 703 706 709 713 718 723 725 729 733 737 741 745 749 754 757 760 763 765 768 771 773 776 778 781 784 787 790 793 796 799 801 803 804 805 807 806
691 692 694 696 699 701 704 708 710 713 716 720 724 727 731 734 738 741 745 748 752 755 759 761 764 766 768 771 773 776 779 782 785 787 790 793 796 799 800 801 803 804 804
695 696 698 700 702 704 708 712 714 715 719 722 726 729 732 735 738 741 744 748 751 754 757 760 762 764 766 770 773 775 777 780 782 785 789 791 793 796 798 799 800 801 803
698 699 701 703 705 708 711 713 716 718 721 724 727 730 732 735 738 741 744 747 750 753 757 759 761 763 766 769 771 774 777 779 781 783 786 788 791 793 795 797 798 799 800
Wind_Speed
23 23 27 30 32 34 33 33 37 38 40 40 42 38 32 28 26 23 22 22 18 19 19 19 17 15 14 15 12 10 10 9 15 12 11 10 7 7 6 5 6 6 8
17 28 29 30 30 32 32 34 39 40 42 44 41 40 34 26 20 18 19 22 20 18 17 18 18 16 14 14 12 11 11 10 15 17 13 10 8 6 5 5 5 6 7
13 13 19 26 29 29 33 35 38 41 44 45 44 42 37 30 28 20 23 20 15 15 18 18 18 20 16 14 12 12 13 13 13 15 14 11 9 7 6 5 5 4 3
12 16 20 22 26 30 33 36 40 45 44 43 44 42 38 36 34 32 23 19 18 14 15 17 16 17 16 17 14 13 12 13 13 14 14 12 11 8 6 6 6 3 1
17 15 18 22 27 31 34 36 38 38 38 38 39 37 35 35 33 31 29 25 21 19 17 15 16 16 19 18 16 15 15 13 13 14 13 12 10 9 7 4 3 4 2
21 20 20 21 24 27 29 31 33 32 34 34 32 32 35 27 31 31 29 27 27 22 20 16 17 20 22 23 21 19 14 12 13 12 11 12 9 8 7 6 4 5 5
18 22 22 25 21 21 26 31 32 32 34 34 27 29 29 23 35 34 30 24 23 21 18 17 16 14 17 17 17 17 18 17 13 11 12 10 12 10 9 7 6 4 3
14 18 22 25 25 28 27 28 29 35 35 32 33 30 30 30 32 31 29 27 26 26 24 21 16 17 16 17 17 15 13 12 14 12 13 12 9 10 9 6 5 4 4
13 18 21 25 26 28 29 32 32 32 32 30 31 29 29 33 34 33 30 26 23 22 23 21 21 22 21 19 21 17 14 12 12 13 13 13 12 10 11 7 6 7 4
13 17 23 24 25 25 29 34 30 30 28 27 26 27 33 34 35 33 26 21 21 20 19 19 19 21 22 18 16 15 13 13 12 13 13 12 10 9 9 11 6 5 5
13 18 23 24 26 26 28 31 31 27 28 26 27 27 27 28 29 29 25 23 24 22 20 19 17 19 21 20 15 14 11 15 13 10 9 7 6 6 7 7 9 5 4
17 18 22 25 25 32 32 29 31 30 27 26 24 22 21 26 29 23 21 18 21 20 20 18 19 22 20 21 17 15 14 15 12 10 7 8 7 6 6 7 8 7 8
18 19 23 24 26 30 33 29 27 27 26 24 24 21 22 25 26 25 20 18 21 15 16 19 20 23 19 17 16 17 19 14 11 11 11 11 10 8 8 7 6 7 7
15 20 22 23 25 25 25 26 26 25 24 23 22 22 23 24 25 24 20 19 19 15 16 16 22 20 16 15 16 14 13 12 13 12 11 11 10 9 9 8 7 7 5
13 19 19 20 23 23 21 22 21 22 26 28 25 26 28 25 27 29 26 22 18 17 19 19 20 18 16 15 16 15 14 13 13 13 14 12 11 11 10 10 9 8 6
13 13 13 15 18 18 19 16 16 21 21 21 24 26 22 21 28 28 25 23 22 25 20 19 19 19 18 17 17 16 16 15 15 14 13 12 13 12 11 9 8 8 8
13 13 13 13 15 16 17 17 15 11 16 18 22 24 26 26 29 29 25 22 21 25 16 17 17 17 17 17 17 16 16 16 14 14 12 12 12 12 11 10 9 8 8
10 12 12 12 12 12 12 13 15 17 16 15 18 22 25 28 31 26 25 24 24 18 15 17 17 16 16 16 16 16 16 16 15 13 12 13 13 12 11 11 10 9 9
8 8 9 11 11 13 15 16 15 15 16 16 18 17 22 27 27 29 29 24 23 19 16 16 15 16 16 16 16 16 15 15 14 13 12 12 12 12 12 11 9 7 8
7 8 8 9 11 11 12 14 15 15 17 17 17 18 20 26 25 26 25 17 19 17 15 14 15 15 16 15 15 15 15 14 14 14 13 12 11 11 10 10 10 10 11
9 9 9 9 9 10 10 12 13 15 16 15 14 18 21 18 18 20 19 17 16 14 13 14 14 15 15 15 15 15 15 15 15 15 14 12 11 11 10 10 11 11 10
7 10 10 9 9 9 9 10 12 14 15 16 16 20 23 16 16 16 15 14 14 13 12 13 13 14 14 15 15 15 15 15 15 15 14 12 11 10 9 11 11 11 10
7 9 11 10 10 12 10 11 12 13 14 15 17 19 18 15 15 15 15 14 14 12 12 12 12 12 12 12 13 14 14 14 14 13 13 12 11 11 11 12 11 11 11
9 10 10 10 11 12 11 10 12 12 14 13 14 16 15 12 13 13 13 14 13 13 12 12 11 11 11 12 12 11 11 10 11 13 13 12 12 12 12 11 11 10 9
11 10 11 11 11 12 12 11 12 13 13 13 13 12 11 11 11 12 12 11 11 12 12 11 8 10 12 13 12 12 12 12 11 12 13 12 12 12 11 10 9 9 10
11 11 11 11 12 11 11 11 11 11 10 10 10 9 10 10 10 10 10 10 10 10 9 9 9 12 13 12 12 12 12 12 11 11 10 10 11 11 10 10 9 9 9
Wind_Direction
254 199 191 191 188 186 182 176 163 159 156 157 163 167 162 161 167 153 166 160 166 164 169 149 149 151 156 133 144 146 144 161 138 130 150 152 137 146 123 108 82 71 32
253 190 186 182 177 173 170 164 158 155 157 158 155 161 163 163 166 166 177 169 175 169 158 156 146 153 137 137 144 148 142 140 149 146 152 154 149 149 155 115 92 67 54
240 197 171 168 163 161 158 156 155 155 155 161 165 164 167 166 168 179 182 175 173 178 167 152 168 143 142 147 150 151 145 136 141 149 148 157 157 161 148 150 117 88 54
214 178 160 158 157 157 155 154 157 162 162 163 168 167 167 168 177 182 184 174 175 172 160 161 154 141 148 151 156 157 150 144 144 152 148 162 166 170 165 154 144 139 125
204 179 169 162 159 156 160 165 165 163 162 158 157 161 168 172 177 172 171 175 167 170 162 150 149 151 157 159 161 161 157 155 157 158 161 163 158 163 165 146 132 176 195
182 178 167 164 167 168 165 161 154 151 150 153 158 160 166 169 172 174 175 170 174 166 155 157 158 169 168 165 161 155 161 167 168 170 173 164 155 163 154 154 168 196 208
180 169 166 161 154 152 148 146 145 147 151 156 156 158 158 166 183 176 174 172 163 155 154 154 154 161 160 158 167 169 168 170 164 178 168 163 154 168 156 168 172 194 180
174 161 166 158 148 148 146 147 148 154 156 157 159 169 167 185 183 181 172 175 170 162 156 154 155 152 152 147 140 135 133 149 157 147 156 148 149 158 164 167 178 165 142
184 168 165 166 160 154 157 154 155 155 157 160 165 166 171 178 180 180 176 166 159 155 163 160 163 155 152 148 154 140 134 135 145 145 141 132 131 157 168 168 182 197 188
191 175 173 173 163 160 159 157 158 158 153 154 155 169 177 169 177 179 170 158 160 157 158 158 169 170 160 159 150 147 143 151 143 138 128 119 112 124 148 150 165 192 171
182 171 168 169 162 161 154 154 152 146 147 154 157 167 169 172 173 174 170 170 168 163 160 162 168 165 163 161 156 156 166 162 163 153 142 136 147 122 111 117 129 132 140
177 167 156 160 158 155 153 151 148 147 148 154 156 157 165 167 172 173 174 178 170 163 162 168 176 170 168 169 165 174 180 164 162 159 164 189 183 152 123 116 116 111 129
175 157 149 151 151 155 150 148 147 151 155 156 158 158 158 164 174 181 177 179 165 164 166 170 173 168 172 163 165 169 160 158 176 173 184 199 193 172 153 136 126 112 103
154 145 146 144 145 149 149 153 155 159 160 163 166 164 162 162 165 170 169 170 168 151 154 156 157 163 170 163 165 169 167 175 182 186 191 198 183 178 185 185 183 173 169
155 142 145 147 145 146 153 161 169 177 176 172 174 168 165 173 177 173 168 166 165 160 148 150 154 167 174 176 175 185 190 190 193 192 194 191 194 196 194 196 198 192 208
133 125 137 145 139 145 145 142 170 187 184 179 175 172 173 174 170 170 169 167 162 156 153 165 174 180 184 188 189 190 193 195 198 197 195 196 202 202 198 200 202 209 215
122 124 130 135 145 153 165 162 145 153 180 185 182 177 177 172 173 172 167 171 166 156 157 176 185 185 191 194 194 195 195 197 196 198 197 202 206 206 200 203 206 211 220
112 131 137 149 151 158 161 161 154 157 154 151 176 170 172 170 169 165 156 149 159 171 179 185 186 190 195 197 196 195 195 190 195 194 198 204 207 207 204 209 209 215 219
104 120 138 145 150 154 151 145 141 145 145 147 146 154 163 163 162 165 165 163 167 178 191 190 189 189 195 198 199 197 193 191 191 191 199 205 207 208 209 211 210 207 227
103 129 136 142 142 141 144 146 143 140 143 147 150 150 152 157 167 172 175 169 173 182 190 194 194 196 199 200 197 193 193 193 193 197 202 205 206 209 212 211 211 208 213
121 124 123 129 135 137 144 151 148 145 144 144 140 148 156 159 166 174 178 179 176 185 192 199 198 197 196 197 198 197 198 200 203 204 204 204 202 205 209 215 217 221 228
115 118 110 107 111 115 126 139 142 142 141 138 141 153 158 154 160 169 176 181 185 188 190 189 192 194 195 194 193 195 202 205 203 203 202 202 204 208 210 214 216 221 219
105 108 111 114 110 116 115 126 131 134 135 142 149 153 159 158 163 171 176 181 183 181 180 179 177 183 189 190 193 197 200 202 200 198 199 201 206 210 210 213 215 220 220
114 114 115 116 122 119 118 119 124 129 136 143 149 158 164 160 164 167 169 172 173 175 176 177 180 187 190 193 189 188 189 187 191 197 197 203 208 207 210 215 216 218 219
110 114 116 118 115 114 120 125 125 127 132 140 145 152 157 159 155 157 160 164 168 171 176 178 177 185 179 175 174 173 186 193 184 186 193 200 202 202 209 211 213 212 215
106 105 108 113 113 118 123 124 124 127 128 132 139 144 148 151 152 149 153 157 160 164 172 172 175 174 175 172 180 191 191 195 199 191 179 187 194 201 205 209 208 215 213